Location: Unspecified
(0.0000°N, 0.0000°E)
Time: 14:02:41
(UTC+00:00)

LightSail 2 - Pass Details

Date: 18 August 2019
Orbit: 701 x 732 km, 24.0° (Epoch: 21 August)

Event Time Altitude Azimuth Distance (km) Brightness Sun altitude
Rises 19:21:07 0° 280° (W) 3,082 10.1 -18.8°
Reaches altitude 10° 19:24:28 10° 302° (WNW) 2,157 8.7 -19.6°
Maximum altitude 19:27:30 16° 339° (NNW) 1,793 7.6 -20.3°
Drops below altitude 10° 19:30:32 10° 16° (NNE) 2,147 7.6 -21.1°
Enters shadow 19:32:19 - 30° (NNE) 2,599 7.9 -21.5°
